Terminal Aerodrome Forecast
Issued by NWS Pueblo, CO

Home | Current Version | Previous Version | Text Only | Print | Product List | Glossary On
Versions: 1 2 3 4 5 6 7 8 9 10 11 12 13 14 15 16 17 18 19 20 21 22 23 24 25 26 27 28 29 30 31 32 33 34 35 36
000
FTUS45 KPUB 251735
TAFCOS
TAF
KCOS 251735Z 2518/2618 29020G30KT P6SM SCT070 SCT150
     FM252200 36010G20KT P6SM SCT050 BKN120
     FM260300 02015G25KT P6SM VCSH SCT020 BKN060
     FM260600 01015G25KT 3SM -SN BR OVC020=

USA.gov is the U.S. government's official web portal to all federal, state and local government web resources and services.